{"data":{"norad_id":28810,"intl_designator":"2005-031B","name":"REIMEI (INDEX)","alt_names":[],"object_type":"PAYLOAD","status":"ACTIVE","operator":null,"country":"JPN","launch_date":"2005-08-23","launch_site_code":"TYMSC","launch_vehicle":null,"mission":null,"orbit_class":"UNKNOWN","rcs_meters":0.5743,"size_class":null,"mass_kg":null,"dimensions":null,"purposes":[],"wikipedia_slug":null,"has_3d_model":false,"image_url":null,"decayed_at":null,"tle_current":{"epoch":"2026-05-24T19:30:25.978752Z","epoch_age_seconds":85102,"freshness":"FRESH","line1":"1 28810U 05031B   26144.81280068  .00005109  00000+0  31186-3 0  9994","line2":"2 28810  98.0112 267.7348 0019668 187.4111 172.6830 15.10641729127465","mean_motion":15.10641729,"eccentricity":0.0019668,"inclination_deg":98.0112,"raan_deg":267.7348,"arg_perigee_deg":187.4111,"mean_anomaly_deg":172.683,"bstar":0.00031186,"rev_number":12746,"period_min":95.323727152251,"perigee_km":520.64643212734,"apogee_km":547.83696497597,"semimajor_km":6912.3786985517,"source":"CELESTRAK","updated_at":"2026-05-25T13:37:55.083660Z"}}}